Location: T�chigga el Be�da
(16.4766°N, 9.3887°W)
Time: 20:36:07
(UTC+00:00)

NOAA 11 - Pass Details

Date: 27 February 2020
Orbit: 834 x 849 km, 98.4° (Epoch: 07 April)

Event Time Altitude Azimuth Distance (km) Brightness Sun altitude
Rises 19:33:54 0° 170° (S) 3,386 7.3 -12.7°
Reaches altitude 10° 19:36:15 10° 171° (S) 2,450 6.6 -13.3°
Maximum altitude 19:41:41 80° 257° (WSW) 852 4.3 -14.6°
Drops below altitude 10° 19:47:07 10° 345° (NNW) 2,444 6.7 -15.9°
Sets 19:49:28 0° 346° (NNW) 3,378 7.5 -16.5°
